Regional Weather Roundup
Issued by NWS Newport/Morehead, NC

Current Version | Previous Version | Graphics & Text | Print | Product List | Glossary Off
Versions: 1 2 3 4 5 6 7 8 9 10 11 12 13 14 15 16 17 18 19 20 21 22 23 24 25 26 27 28 29 30 31 32 33 34 35 36 37 38 39

000
ASUS42 KMHX 240222
RWRMHX
WEATHER ROUNDUP FOR EASTERN NORTH CAROLINA
NATIONAL WEATHER SERVICE NEWPORT/MOREHEAD CITY NC
1000 PM EDT WED APR 23 2014

NOTE: "FAIR" INDICATES FEW OR NO CLOUDS BELOW 12,000 FEET
WITH NO SIGNIFICANT WEATHER AND/OR OBSTRUCTIONS TO VISIBILITY

NCZ015>017-031-032-045>047-102-103-240300-
NORTH COAST

CITY           SKY/WX    TMP DP  RH WIND       PRES   REMARKS
EDENTON        CLEAR     54  40  59 N5        29.92R
ELIZABETH CITY CLEAR     56  36  47 NW6       29.91R
KITTY HAWK     CLEAR     53  43  68 N6        29.90R
MANTEO         CLEAR     55  43  64 CALM      29.92R

$$

NCZ045>047-081-094-103-104-240300-
CENTRAL COAST

CITY           SKY/WX    TMP DP  RH WIND       PRES   REMARKS
FRISCO         CLEAR     48  40  73 E3        29.92R
SWANQUARTER      N/A     54 N/A N/A CALM      29.88R

$$

NCZ095-097-098-100-101-240300-
SOUTHERN COAST

CITY           SKY/WX    TMP DP  RH WIND       PRES   REMARKS
BEAUFORT       CLEAR     61  41  47 NW5       29.91R
CEDAR ISLAND     N/A     59 N/A N/A E5G10     29.94R
JACKSONVILLE   CLEAR     54  45  71 CALM      29.92R
NEWPORT          N/A     50  43  76 CALM        N/A
PINEY ISLAND   CLEAR     59  53  80 SE7       29.91R
WILMINGTON     CLEAR     58  42  55 CALM      29.91R


$$

NCZ011>013-027>030-043-044-078>080-089-090>093-098-240300-
COASTAL PLAIN

CITY           SKY/WX    TMP DP  RH WIND       PRES   REMARKS
AHOSKIE        CLEAR     51  40  64 CALM      29.93R
CLINTON        CLEAR     55  45  69 CALM      29.93R
ELIZABETHTOWN  CLEAR     58  39  49 CALM      29.92R
GOLDSBORO      CLEAR     55  40  55 CALM      29.91R
GREENVILLE     CLEAR     50  45  81 W3        29.93S
HAVELOCK       CLEAR     62  35  36 NW3       29.92R
KENANSVILLE    CLEAR     49  40  70 CALM      29.93R
KINSTON        NOT AVBL
NEW BERN       CLEAR     54  45  71 CALM      29.92R
RICHLANDS      CLEAR     50  48  93 CALM      29.94R
ROANOKE RAPIDS NOT AVBL
ROCKY MOUNT    CLEAR     54  39  57 CALM      29.92R
WASHINGTON     CLEAR     55  40  58 CALM      29.92R
WHITEVILLE     CLEAR     58  45  61 CALM      29.92R

$$

AMZ130-135-150-152-154-156-158-170-250-252-270-ANZ085-086-088-633-658-670-240300-
MARINE OBSERVATIONS

STATION/POSITION TIME  TEMP    WIND        PRES    WAVE   SWELL
                       AIR SEA DIR/SP/G            HT/PER HT/PER
                 (UTC) (F)     (DEG/KT/KT) (MB)    (FT/S) (FT/S)
CHESAPEAKE LIGHT 0200   56     340/ 24/ 24 1013.2
BUOY 44014       0200   51 49  310/  8/ 10 1012.0    4/ 6   3/ 6
DUCK             0200   55 51  360/ 15/ 16 1011.7
2E DUCK          0200      50                N/A     3/ 5
OREGON INLET     0200   54 54  350/  6/  9 1012.8
BUOY 44095       0200      50                N/A     3/ 9   2/11
HATTERAS CG      0200   55 62   80/  4/  5 1013.4
DIAMOND BUOY     0200   61 75   20/ 12/ 16 1012.8    4/ 9   3/ 9
CAPE LOOKOUT     0200   62     320/  4/  5 1012.9
BEAUFORT LAB     0200   63 63  320/  4/  5 1012.3
30 SE NEW RIVER  0200   68 70  360/ 16/ 19 1012.9    3/ 8   2/ 8
5 SE WRIGHTSVILL 0200   65 63   20/  6/  8 1012.9
FRYING PAN BUOY  0200   66 68  360/ 10/ 10 1012.6    2/ 8   2/ 8
BUOY 41001       NOT AVBL
BUOY 41002       NOT AVBL
BUOY 41004       0200   68 67  220/  6/  6 1011.9    3/ 8   2/ 8

$$



USA.gov is the U.S. government's official web portal to all federal, state and local government web resources and services.